[[{"header":{"parameterUnit":"m.s-1","parameterCategory":1,"la1":30.2991,"la2":30.254,"lo1":-89.0895,"lo2":-89.0444,"dy":0.0017,"dx":0.0017,"nx":28,"ny":28,"refTime":"2025-06-20T21:00:00:Z","depth":0,"parameterNumber":2,"parameterNumberName":"U-component_of_WINDS"},"data":[0,0,0,0,0,0,0,0,0,0,0,0,0,0,0,0,0,0,0,0,0,0,0,0,0,0,0,0,0,0,0,0,0,0,0,0,0,0,0,0,0,0,0,0,0,0,0,0,0,0,0,0,0,0,0,0,0,0,1.8387,1.8387,0,1.8421,1.8421,1.8422,1.8388,1.8387,1.8385,1.8384,1.8419,1.8421,1.8423,0,0,0,0,0,0,0,0,0,0,0,0,0,1.829,1.8292,1.8387,1.8387,1.8388,1.8421,1.8421,1.8422,1.8388,1.8387,1.8385,1.8383,1.8418,1.8421,1.8424,0,0,0,0,0,0,0,0,0,0,0,0,0,1.8329,1.8292,1.8387,1.8375,1.8374,1.8421,1.8422,1.8422,1.8388,1.8386,1.8384,1.8383,1.8418,1.8421,1.8424,1.8484,0,0,1.8434,1.8435,0,0,0,0,0,0,0,0,1.8327,1.8332,1.8376,1.8376,1.8375,1.8398,1.84,1.8443,1.8389,1.8383,1.8384,1.8382,1.8414,1.8417,1.8428,1.8486,1.8488,1.8434,1.8436,1.8438,1.8439,0,0,0,0,0,0,0,1.8324,1.8331,1.84,1.8377,1.8376,1.8367,1.837,1.8408,1.8409,1.8383,1.8381,1.8385,1.8413,1.8425,1.8429,1.8488,1.8434,1.8437,1.8439,1.844,1.8593,1.8595,0,0,0,0,0,0,1.8323,1.8329,1.8399,1.8401,1.8345,1.837,1.8374,1.8393,1.8409,1.8409,1.8387,1.8384,1.842,1.8425,1.843,1.8498,1.8438,1.8441,1.8443,1.8591,1.8594,1.8596,0,0,0,0,0,0,1.8321,1.8329,1.8398,1.8364,1.8372,1.8374,1.8395,1.8394,1.8406,1.8412,1.8412,1.8399,1.8419,1.8425,1.847,1.8499,1.8442,1.8445,1.8589,1.8592,1.8595,1.8638,0,0,0,0,0,0,1.8318,1.8329,1.8352,1.8365,1.8374,1.8438,1.8397,1.8397,1.8412,1.8408,1.8423,1.8423,1.8418,1.8465,1.8473,1.8503,1.8448,1.8586,1.859,1.8594,1.8634,1.8642,1.8649,0,0,0,0,0,1.8315,1.8364,1.8354,1.8363,1.8404,1.844,1.8445,1.8438,1.8415,1.8437,1.844,1.8423,1.8495,1.847,1.8479,1.851,1.8584,1.8589,1.8593,1.863,1.8641,1.8649,0,0,0,0,0,0,1.8356,1.8366,1.8354,1.841,1.8424,1.8434,1.8463,1.8449,1.8471,1.8466,1.8456,1.846,1.8507,1.8513,1.8485,1.8567,1.8536,1.8542,1.8561,1.8571,1.8578,1.8574,1.845,0,0,0,0,0,1.8371,1.84,1.8407,1.8455,1.8463,1.8462,1.8478,1.847,1.8485,1.8491,1.8497,1.8512,1.8538,1.8555,1.8579,1.8635,1.8636,1.8661,1.8668,1.8674,1.868,1.8706,1.8716,1.8611,1.8611,1.8611,0,0,1.8403,1.8412,1.8431,1.8463,1.8474,1.8502,1.8467,1.85,1.8521,1.8496,1.8538,1.8543,1.8559,1.8609,1.8631,1.8615,1.8709,1.8681,1.8685,1.8687,1.8712,1.8722,1.8731,1.8615,1.8614,1.8613,0,0,1.8476,1.8487,1.8526,1.8537,1.8552,1.8551,1.8561,1.8572,1.8574,1.8616,1.8597,1.8622,1.8667,1.8678,1.8689,1.8763,1.8747,1.8772,1.8811,1.8837,1.8845,1.8852,1.8875,1.8884,1.8777,1.8777,1.8777,0,1.8514,1.8557,1.8548,1.8581,1.8594,1.8573,1.8611,1.8622,1.8645,1.8654,1.8637,1.8691,1.87,1.875,1.8768,1.8779,1.8788,1.8769,1.8845,1.8852,1.8858,1.888,1.8889,1.878,1.878,1.8779,1.8779,0,1.86,1.863,1.866,1.8681,1.8698,1.8734,1.873,1.8748,1.8739,1.8739,1.878,1.8791,1.8815,1.8827,1.8819,1.8875,1.8864,1.8846,1.8814,1.8871,1.8891,1.89,1.8784,1.8783,1.8782,1.8781,0,0,1.87,1.8714,1.8725,1.8732,1.8747,1.877,1.8804,1.8827,1.8841,1.8858,1.8884,1.8922,1.8904,1.8917,1.891,1.8934,1.8987,1.8912,1.8912,1.8923,1.9045,1.9057,1.9067,1.8977,1.8979,1.898,1.9043,0,1.877,1.8828,1.882,1.8875,1.8901,1.888,1.8909,1.892,1.8921,1.8942,1.8943,1.8969,1.8945,1.8952,1.8974,1.8976,1.9011,1.8972,1.8999,1.9,1.8993,1.9078,1.9091,1.915,1.9051,1.9053,1.9054,0,1.886,1.8877,1.8935,1.8942,1.8953,1.8979,1.8997,1.9019,1.9031,1.903,1.9043,1.9031,1.9063,1.9032,1.9075,1.9048,1.9059,1.9062,1.9064,1.9064,1.9029,1.9078,1.9169,1.9177,1.9067,1.9066,1.9065,0,1.8922,1.8961,1.8999,1.9007,1.9018,1.9036,1.9041,1.9051,1.9064,1.9081,1.9089,1.911,1.912,1.9136,1.9129,1.9108,1.9172,1.9141,1.917,1.917,1.9183,1.9181,1.9274,1.9195,1.9195,1.9195,1.9194,0,1.8999,1.9034,1.9026,1.905,1.9087,1.9078,1.9115,1.9118,1.9127,1.9149,1.9133,1.9155,1.9146,1.9167,1.9162,1.9196,1.9202,1.9201,1.9198,1.92,1.92,1.9206,1.92,1.9197,1.9196,1.9196,1.9196,0,1.9075,1.9071,1.911,1.9117,1.9119,1.9146,1.9151,1.9172,1.9171,1.92,1.9206,1.9204,1.9227,1.9223,1.9249,1.9245,1.9287,1.9282,1.9283,1.928,1.9308,1.9304,1.9405,1.9417,1.9333,1.9334,1.9334,0,1.9123,1.9149,1.9157,1.917,1.9177,1.9199,1.9212,1.9203,1.9217,1.9231,1.925,1.9271,1.9287,1.9325,1.9326,1.9345,1.9338,1.9372,1.934,1.934,1.9334,1.9331,1.9333,1.9377,1.9378,1.9379,1.9379,0,1.9208,1.9204,1.9223,1.924,1.9255,1.9269,1.9281,1.9293,1.9285,1.9301,1.9324,1.9336,1.9362,1.9382,1.9399,1.9404,1.939,1.939,1.9396,1.9397,1.9396,1.9394,1.9296,1.9387,1.9386,1.9385,1.9385,1.9385,1.9269,1.9289,1.9297,1.9318,1.9326,1.9337,1.9356,1.9356,1.9375,1.9394,1.9388,1.9413,1.9422,1.9443,1.945,1.9469,1.9456,1.9467,1.9469,1.9471,1.9473,1.9395,1.9472,1.9472,1.9472,1.9472,1.9472,0,1.935,1.9353,1.9372,1.9388,1.9404,1.9389,1.9401,1.9415,1.9437,1.9447,1.9462,1.9487,1.9506,1.9508,1.9526,1.954,1.9534,1.9545,1.9542,1.9543,1.9485,1.9476,1.955,1.955,1.955,1.955,1.9549,1.9549,1.9393,1.9426,1.9423,1.9459,1.9463,1.9486,1.9494,1.9503,1.951,1.9538,1.9553,1.9554,1.956,1.9578,1.9594,1.9594,1.96,1.9613,1.961,1.9555,1.9548,1.954,1.9531,1.9615,1.9615,1.9666,1.9666,1.9667]},{"header":{"parameterUnit":"m.s-1","parameterCategory":1,"la1":30.2991,"la2":30.254,"lo1":-89.0895,"lo2":-89.0444,"dy":0.0017,"dx":0.0017,"nx":28,"ny":28,"refTime":"2025-06-20T21:00:00:Z","depth":0,"parameterNumber":3,"parameterNumberName":"V-component_of_WINDS"},"data":[0,0,0,0,0,0,0,0,0,0,0,0,0,0,0,0,0,0,0,0,0,0,0,0,0,0,0,0,0,0,0,0,0,0,0,0,0,0,0,0,0,0,0,0,0,0,0,0,0,0,0,0,0,0,0,0,0,0,1.5592,1.5592,0,1.5661,1.5662,1.5663,1.5676,1.5675,1.5675,1.5674,1.5741,1.5743,1.5745,0,0,0,0,0,0,0,0,0,0,0,0,0,1.5463,1.5465,1.5591,1.5592,1.5593,1.5661,1.5662,1.5663,1.5676,1.5675,1.5675,1.5674,1.574,1.5743,1.5745,0,0,0,0,0,0,0,0,0,0,0,0,0,1.5524,1.5466,1.5591,1.5608,1.561,1.5661,1.5662,1.5663,1.5676,1.5675,1.5674,1.5674,1.5739,1.5742,1.5746,1.5784,0,0,1.5756,1.5758,0,0,0,0,0,0,0,0,1.5521,1.5529,1.5605,1.5607,1.5609,1.5659,1.5641,1.5704,1.5676,1.5651,1.5674,1.5673,1.5714,1.5719,1.5734,1.5787,1.5789,1.5756,1.5759,1.576,1.5761,0,0,0,0,0,0,0,1.5516,1.5526,1.5619,1.5606,1.5609,1.561,1.5618,1.5653,1.5686,1.5653,1.5654,1.5663,1.5715,1.5731,1.5736,1.579,1.5756,1.5759,1.5762,1.5763,1.5875,1.5876,0,0,0,0,0,0,1.551,1.5522,1.5617,1.5621,1.5562,1.5613,1.5622,1.5644,1.5686,1.5691,1.5663,1.5663,1.5725,1.5732,1.5738,1.5784,1.576,1.5763,1.5765,1.5875,1.5876,1.5877,0,0,0,0,0,0,1.5507,1.5518,1.5614,1.5572,1.5584,1.5616,1.5641,1.5646,1.5662,1.5693,1.5699,1.5674,1.5725,1.5733,1.5772,1.5787,1.5765,1.5768,1.5873,1.5875,1.5876,1.5877,0,0,0,0,0,0,1.5504,1.5517,1.5534,1.5572,1.5587,1.5649,1.5642,1.5648,1.5668,1.5668,1.5705,1.571,1.5725,1.5767,1.5775,1.5791,1.5771,1.5872,1.5874,1.5876,1.5876,1.5878,1.588,0,0,0,0,0,1.5499,1.553,1.5534,1.5546,1.5608,1.5649,1.5657,1.5676,1.5669,1.5685,1.5705,1.5709,1.5784,1.5771,1.5781,1.5797,1.5871,1.5874,1.5876,1.5875,1.5878,1.588,0,0,0,0,0,0,1.549,1.5536,1.5541,1.5586,1.5614,1.5652,1.5672,1.5678,1.5707,1.5706,1.5726,1.5734,1.5771,1.5788,1.5773,1.5835,1.5827,1.5831,1.5823,1.5826,1.5828,1.5823,1.5773,0,0,0,0,0,1.5494,1.5526,1.5563,1.5599,1.5613,1.564,1.5659,1.567,1.57,1.5711,1.5734,1.5761,1.579,1.5809,1.5838,1.5878,1.5885,1.5894,1.5897,1.5898,1.5901,1.5922,1.5926,1.5884,1.5884,1.5884,0,0,1.5501,1.553,1.5549,1.5598,1.5621,1.5652,1.565,1.5683,1.5705,1.5715,1.5754,1.5771,1.5802,1.5842,1.586,1.5857,1.5915,1.5901,1.5902,1.5904,1.5925,1.5929,1.5932,1.5885,1.5885,1.5885,0,0,1.553,1.5556,1.5589,1.5612,1.5647,1.5665,1.5673,1.5709,1.5722,1.5761,1.5769,1.5795,1.5846,1.5867,1.5884,1.592,1.5924,1.5929,1.594,1.5961,1.5964,1.5967,1.5979,1.5983,1.5932,1.5932,1.5932,0,1.5535,1.5583,1.5604,1.5636,1.5657,1.5669,1.5701,1.5722,1.5764,1.5777,1.5773,1.5837,1.5858,1.5902,1.5911,1.5925,1.5933,1.5925,1.5962,1.5966,1.5969,1.598,1.5984,1.5932,1.5932,1.5932,1.5932,0,1.5586,1.5619,1.5641,1.5683,1.5706,1.5738,1.5761,1.5782,1.5791,1.5808,1.5846,1.5873,1.5907,1.5918,1.5927,1.5963,1.5959,1.5959,1.5951,1.5973,1.5983,1.5988,1.5933,1.5933,1.5933,1.5932,0,0,1.5612,1.5665,1.5672,1.5691,1.5731,1.5756,1.5787,1.5822,1.5838,1.5867,1.5892,1.5935,1.5934,1.5954,1.5965,1.5983,1.6008,1.5979,1.598,1.5983,1.6047,1.6047,1.6052,1.6011,1.6012,1.6012,1.6044,0,1.5645,1.5704,1.5722,1.577,1.58,1.5812,1.5839,1.5865,1.5882,1.5908,1.5925,1.5955,1.5952,1.5964,1.5982,1.6001,1.6021,1.5999,1.6033,1.6034,1.6024,1.6057,1.6058,1.6086,1.6048,1.6049,1.605,0,1.5691,1.5722,1.5773,1.5808,1.5822,1.5846,1.5879,1.5904,1.5933,1.5944,1.5965,1.5975,1.6006,1.5997,1.6038,1.6023,1.6038,1.6049,1.605,1.6054,1.6043,1.6061,1.6096,1.61,1.6057,1.6056,1.6056,0,1.5704,1.5758,1.5795,1.5811,1.5853,1.587,1.5887,1.5916,1.5935,1.5963,1.5975,1.6005,1.6022,1.6044,1.6061,1.6053,1.61,1.6093,1.6109,1.6108,1.6118,1.6117,1.6155,1.6129,1.6128,1.6128,1.6128,0,1.5738,1.5769,1.5801,1.5824,1.5858,1.5879,1.5911,1.5929,1.5954,1.5979,1.599,1.6013,1.6034,1.6059,1.6072,1.6104,1.6111,1.6119,1.6122,1.6118,1.6117,1.6128,1.6126,1.613,1.6129,1.6129,1.6129,0,1.5758,1.5781,1.5822,1.5859,1.5869,1.5892,1.5922,1.5944,1.5961,1.5992,1.6001,1.6026,1.6056,1.6076,1.6113,1.6122,1.6156,1.6159,1.6147,1.6148,1.6163,1.6161,1.6209,1.6215,1.6185,1.6185,1.6185,0,1.5778,1.5802,1.5841,1.586,1.5878,1.5908,1.5928,1.5948,1.5968,1.6002,1.6019,1.605,1.6076,1.6123,1.6144,1.6172,1.6175,1.619,1.6179,1.6174,1.6174,1.6172,1.6174,1.6191,1.6191,1.6192,1.6192,0,1.5811,1.5821,1.5851,1.5884,1.5908,1.5934,1.5961,1.5975,1.5999,1.602,1.6052,1.6072,1.6111,1.6141,1.6171,1.6187,1.6193,1.6195,1.62,1.6196,1.6187,1.6191,1.6151,1.6194,1.6193,1.6193,1.6193,1.6193,1.5831,1.5853,1.5884,1.5915,1.5938,1.5962,1.5984,1.6004,1.6031,1.6066,1.6075,1.6108,1.6134,1.6176,1.6192,1.6216,1.6214,1.6222,1.6223,1.6225,1.6224,1.6184,1.6222,1.6222,1.6222,1.6222,1.6222,0,1.5864,1.5884,1.5914,1.5951,1.5975,1.5981,1.601,1.6029,1.6058,1.6083,1.6109,1.6144,1.6173,1.6196,1.6225,1.624,1.6243,1.6247,1.6245,1.6249,1.6225,1.6218,1.6244,1.6244,1.6244,1.6244,1.6244,1.6244,1.5884,1.592,1.5934,1.598,1.6,1.6034,1.605,1.6071,1.6091,1.6131,1.6155,1.6171,1.6195,1.6225,1.6251,1.6257,1.6267,1.627,1.6276,1.6253,1.6251,1.6248,1.6241,1.6272,1.6272,1.6297,1.6298,1.6298]}]]